sat.trackr.live / text

‹ back to catalog

STARLINK-35934

NORAD 67542 · 2026-014L

PAYLOAD ACTIVE UNKNOWN

§ Identity

Operator
Country
US
Launch date
2026-01-22
Launch site
AFWTR
Launch vehicle
Mass (kg)
RCS (m²)

Purposes: comms

External: N2YO · Heavens-Above · Gunter

§ Orbital elements

Epoch: 2026-05-25T03:11:35.498400Z

Period
93.91 min
Inclination
97.2866°
Eccentricity
0.0001402
Mean motion
15.33444528 rev/d
Perigee alt
464.6 km
Apogee alt
466.5 km
Semi-major
6,843.7 km
B*
5.2816e-4
RAAN
32.2565°
Arg perigee
92.4430°
Mean anomaly
267.6973°
Rev number
2,049

§ Raw data

STARLINK-359341 67542U 26014L   26145.13304975  .00017014  00000+0  52816-3 0  99942 67542  97.2866  32.2565 0001402  92.4430 267.6973 15.33444528 20490

JSON: /api/v1/satellites/67542 · /tle

For live sub-satellite position, see the globe view (requires WebGL).

§ Visibility from observer

Set your observer location to see the next 7 days of passes ≥ 10°. The values pass through the URL so the page stays shareable.

No JS? Fill the form by hand. The geolocation button needs JavaScript.